Location: Serin Observatory
(40.5200°N, 74.4500°W)
Time: 23:10:48
(UTC+00:00)

SL-8 R/B - Visible Passes

Search period start: 01 July 2015 00:00
Search period end: 11 July 2015 00:00
Orbit: 658 x 669 km, 48.4° (Epoch: 30 June)

Date Brightness Start Highest point End Pass type
(mag) Time Alt. Az. Time Alt. Az. Time Alt. Az.
01 Jul 5.1 03:55:32 25° ENE 03:55:32 25° ENE 03:57:43 10° ENE visible
01 Jul 4.6 05:33:27 27° WNW 05:35:41 46° NNW 05:40:21 10° NE visible
01 Jul 5.5 07:14:43 10° WNW 07:19:02 31° N 07:23:21 10° ENE visible
02 Jul 3.7 04:24:05 73° WNW 04:24:21 76° NNW 04:29:11 10° ENE visible
02 Jul 5.3 06:03:02 10° WNW 06:07:26 34° N 06:11:50 10° ENE visible
02 Jul 5.3 07:46:23 10° NW 07:50:51 36° NNE 07:55:20 10° E visible
03 Jul 3.8 03:13:42 54° ESE 03:13:42 54° ESE 03:17:56 10° ENE visible
03 Jul 4.7 04:51:26 11° W 04:55:55 44° NNW 05:00:33 10° NE visible
03 Jul 5.5 06:34:58 10° WNW 06:39:17 31° N 06:43:36 10° ENE visible
03 Jul 4.6 08:17:49 10° NW 08:22:33 53° NNE 08:27:18 10° E visible
04 Jul 4.6 01:58:20 10° SSW 02:02:17 26° SE 02:06:18 10° E visible
04 Jul 3.9 03:39:47 10° WSW 03:44:34 72° NNW 03:49:23 10° ENE visible
04 Jul 5.3 05:23:19 10° WNW 05:27:41 33° N 05:32:04 10° ENE visible
04 Jul 5.2 07:06:37 10° NW 07:11:06 37° NNE 07:15:36 10° E visible
04 Jul 3.7 08:49:12 10° WNW 08:54:03 84° SSW 08:58:53 10° SE visible
05 Jul 3.6 02:28:42 10° SW 02:33:25 61° SE 02:38:09 10° ENE visible
05 Jul 4.8 04:11:35 10° W 04:16:10 43° NNW 04:20:46 10° NE visible
05 Jul 5.5 05:55:13 10° WNW 05:59:32 32° N 06:03:52 10° ENE visible
05 Jul 4.4 07:38:02 10° NW 07:42:47 56° NNE 07:47:33 10° ESE visible
06 Jul 4.5 01:18:24 10° SSW 01:22:28 29° SE 01:26:36 10° ENE visible
06 Jul 4.0 03:00:01 10° WSW 03:04:47 68° NNW 03:09:35 10° ENE visible
06 Jul 5.4 04:43:35 10° WNW 04:47:56 33° N 04:52:18 10° ENE visible
06 Jul 5.1 06:26:51 10° NW 06:31:21 38° NNE 06:35:52 10° E visible
06 Jul 3.6 08:09:25 10° WNW 08:14:15 79° SSW 08:19:05 10° SE visible
07 Jul 3.6 01:48:53 10° SW 01:53:37 65° SE 01:58:23 10° ENE visible
07 Jul 5.0 03:31:51 10° W 03:36:24 41° NNW 03:40:59 10° NE visible
07 Jul 5.5 05:15:28 10° WNW 05:19:47 32° N 05:24:07 10° ENE visible
07 Jul 4.3 06:58:15 10° NW 07:03:00 58° NNE 07:07:47 10° ESE visible
07 Jul 4.3 08:41:03 10° WNW 08:45:28 36° SW 08:49:51 10° SSE visible
08 Jul 4.1 02:20:15 10° WSW 02:25:01 64° NNW 02:29:48 10° ENE visible
08 Jul 5.4 04:03:51 10° WNW 04:08:11 32° N 04:12:32 10° ENE visible
08 Jul 5.0 05:47:04 10° NW 05:51:35 39° NNE 05:56:08 10° E visible
08 Jul 3.6 07:29:38 10° WNW 07:34:27 75° SSW 07:39:16 10° SE visible
09 Jul 3.6 01:09:04 10° SW 01:13:49 70° SE 01:18:36 10° ENE visible
09 Jul 5.0 02:52:07 10° W 02:56:39 40° NNW 03:01:11 10° NE visible
09 Jul 5.4 04:35:43 10° WNW 04:40:03 32° N 04:44:23 10° ENE visible
09 Jul 4.1 06:18:27 10° NW 06:23:14 61° NNE 06:28:01 10° ESE visible
09 Jul 4.3 08:01:19 10° WNW 08:05:39 33° SW 08:09:57 10° SSE visible
10 Jul 4.3 01:40:30 10° WSW 01:45:14 61° NNW 01:50:01 10° NE visible
10 Jul 5.4 03:24:08 10° WNW 03:28:27 32° N 03:32:46 10° ENE visible
10 Jul 4.9 05:07:17 10° NW 05:11:50 40° NNE 05:16:23 10° E visible
10 Jul 3.5 06:49:51 10° WNW 06:54:39 70° SW 06:59:27 10° SE visible
10 Jul 5.3 08:34:09 10° W 08:36:39 14° SW 08:38:58 10° SSW visible
